Location: Claremont
(33.9858°S, 18.4575°E)
Time: 01:39:30
(UTC+00:00)

Delta 2 Rocket - Pass Details

Date: 03 March 2021
Orbit: 415 x 803 km, 35.6° (Epoch: 21 April)

Event Time Altitude Azimuth Distance (km) Brightness Sun altitude
Rises 18:47:23 0° 258° (WSW) 2,492 8.3 -18.4°
Reaches altitude 10° 18:49:38 10° 260° (W) 1,573 6.8 -18.8°
Maximum altitude 18:53:09 71° 343° (NNW) 456 2.8 -19.5°
Enters shadow 18:53:20 69° 12° (NNE) 462 2.7 -19.5°
